Mytilini, Greece

12:43 PM EEST on October 17, 2018 (GMT +0300)
Odysseas Elytis

Weather History for LGMT - January, 2018

Change the Weather History Date:

Saturday, January 13, 2018

  Actual Average Record
Temperature  
Mean Temperature 52 °F -  
Max Temperature 55 °F 54 °F 64 °F (2016)
Min Temperature 50 °F 44 °F 35 °F (2002)
Degree Days  
Heating Degree Days 12    
Growing Degree Days 2 (Base 50)    
Moisture  
Dew Point 50 °F    
Average Humidity 90    
Maximum Humidity 94    
Minimum Humidity 76    
Precipitation  
Precipitation 0.75 in 0.15 in - ()
Sea Level Pressure  
Sea Level Pressure 29.91 in    
Wind  
Wind Speed 9 mph ()    
Max Wind Speed 16 mph    
Max Gust Speed -    
Visibility 4.8 miles    
Events Rain    
Averages and records for this station are not official NWS values.
T = Trace of Precipitation, MM = Missing Value Source: Averaged Metar Reports

Daily Weather History Graph

Daily Weather History Graph

Search for Another Location

Airport or City:

Astronomy

Jan. 13, 2018 Rise Set
Actual Time 7:31 AM EET 5:12 PM EET
Civil Twilight 7:02 AM EET 5:42 PM EET
Nautical Twilight 6:29 AM EET 6:15 PM EET
Astronomical Twilight 5:57 AM EET 6:47 PM EET
Moon 4:16 AM EET (1/13) 2:35 PM EET (1/13)
Length of Visible Light 10h 39m
Length of Day
9h 41m
Waning Crescent, 12% of the Moon is Illuminated
Jan 13
Waning Crescent
Jan 17
New
Jan 25
First Quarter
Jan 31
Full
Feb 7
Last Quarter

Hourly Weather History & Observations

Time (EET) Temp. Dew Point Humidity Pressure Visibility Wind Dir Wind Speed Gust Speed Precip Events Conditions
6:20 AM 55.4 °F 51.8 °F 88% 29.86 in 6.2 mi ESE 12.7 mph - N/A   Scattered Clouds
7:20 AM 55.4 °F 51.8 °F 88% 29.83 in 6.2 mi ESE 16.1 mph - N/A   Scattered Clouds
7:50 AM 53.6 °F 48.2 °F 82% 29.83 in 6.2 mi ESE 12.7 mph - N/A   Mostly Cloudy
8:00 AM 54 °F 49 °F 76% 29.86 in 6 mi ESE 12.7 mph - -   Mostly Cloudy
8:20 AM 53.6 °F 48.2 °F 82% 29.83 in 6.2 mi ESE 10.4 mph - N/A   Mostly Cloudy
8:50 AM 55.4 °F 51.8 °F 88% 29.86 in 6.2 mi ENE 10.4 mph - N/A   Mostly Cloudy
9:20 AM 55.4 °F 51.8 °F 88% 29.86 in 6.2 mi ENE 11.5 mph - N/A   Mostly Cloudy
9:50 AM 53.6 °F 51.8 °F 94% 29.86 in 4.3 mi East 12.7 mph - N/A Rain Light Rain
10:20 AM 53.6 °F 51.8 °F 94% 29.86 in 3.1 mi East 12.7 mph - N/A Rain Rain
10:50 AM 53.6 °F 51.8 °F 94% 29.89 in 3.1 mi ESE 10.4 mph - N/A Rain Rain
11:00 AM 54 °F 51 °F 88% 29.88 in 3 mi ESE 10.4 mph - - Rain Rain
11:20 AM 53.6 °F 51.8 °F 94% 29.89 in 3.1 mi ESE 11.5 mph - N/A Rain Light Rain
11:50 AM 53.6 °F 50.0 °F 88% 29.89 in 3.1 mi NE 9.2 mph - N/A Rain Light Rain
12:20 PM 53.6 °F 50.0 °F 88% 29.86 in 6.2 mi NNE 9.2 mph - N/A   Mostly Cloudy
12:50 PM 53.6 °F 50.0 °F 88% 29.86 in 6.2 mi East 9.2 mph - N/A   Mostly Cloudy
1:20 PM 53.6 °F 50.0 °F 88% 29.83 in 4.3 mi East 9.2 mph - N/A Rain Light Rain
1:50 PM 53.6 °F 50.0 °F 88% 29.92 in 4.3 mi ENE 15.0 mph - N/A Rain Light Rain
2:00 PM 53 °F 51 °F 88% 29.94 in 4 mi ENE 15.0 mph - - Rain Light Rain
2:20 PM 53.6 °F 50.0 °F 88% 29.92 in 4.3 mi ENE 15.0 mph - N/A Rain Light Rain
2:50 PM 51.8 °F 50.0 °F 94% 29.92 in 4.3 mi East 13.8 mph - N/A Rain Light Rain
3:20 PM 51.8 °F 50.0 °F 94% 29.92 in 3.7 mi ESE 11.5 mph - N/A Rain Light Rain
3:50 PM 51.8 °F 48.2 °F 88% 29.95 in 3.7 mi ESE 13.8 mph - N/A Rain Light Rain
4:20 PM 51.8 °F 48.2 °F 88% 29.95 in 3.7 mi East 9.2 mph - N/A Rain Light Rain
4:50 PM 50.0 °F 48.2 °F 94% 29.95 in 3.7 mi North 4.6 mph - N/A Rain Light Rain
5:00 PM 51 °F 48 °F 85% 29.96 in 4 mi North 4.6 mph - - Rain Light Rain
5:20 PM 50.0 °F 48.2 °F 94% 29.95 in 3.7 mi Variable 2.3 mph - N/A Rain Light Rain
5:50 PM 50.0 °F 48.2 °F 94% 29.95 in 3.7 mi Variable 2.3 mph - N/A Rain Light Rain
6:20 PM 50.0 °F 48.2 °F 94% 29.95 in 3.7 mi Variable 2.3 mph - N/A Rain Light Rain
6:50 PM 50.0 °F 48.2 °F 94% 29.95 in 3.7 mi Variable 2.3 mph - N/A Rain Light Rain
7:20 PM 50.0 °F 48.2 °F 94% 29.95 in 4.3 mi Variable 2.3 mph - N/A Rain Light Rain
7:50 PM 50.0 °F 48.2 °F 94% 29.95 in 5.6 mi Calm Calm - N/A Rain Light Rain
8:00 PM 50 °F 47 °F 88% 29.97 in 6 mi Calm Calm - - Rain Light Rain
8:20 PM 50.0 °F 48.2 °F 94% 29.95 in 6.2 mi Variable 2.3 mph - N/A   Scattered Clouds
8:50 PM 50.0 °F 48.2 °F 94% 29.95 in 6.2 mi Variable 3.5 mph - N/A   Scattered Clouds
9:20 PM 50.0 °F 48.2 °F 94% 29.95 in 6.2 mi Variable 3.5 mph - N/A   Scattered Clouds
9:50 PM 50.0 °F 48.2 °F 94% 29.95 in 6.2 mi Variable 3.5 mph - N/A   Scattered Clouds
10:20 PM 51.8 °F 48.2 °F 88% 29.95 in 6.2 mi Variable 3.5 mph - N/A   Scattered Clouds